When you browse on this site, cookies collect data to enhance your experience and personalize the content and advertising you see.
Visit our Privacy Policy to learn more. By continuing to use the site, you agree to this use of cookies and data.
  • In United Kingdom
  • List of Countries
  • For 7 days
  • Water Temperature
  • Satellite Maps
  • Weather Map
  • Weather Widgets
  • user-avatar
    Login

    Hourly Weather Nottingham

    Today, 20 April, Saturday

    Time Temperature Precipitation Wind Pressure Humidity
    00:00 +8°C° 0 mm 1 mps 768 mmHg 86%
    01:00 +8°C° 0 mm 1 mps 768 mmHg 86%
    02:00 +8°C° 0 mm 1 mps 768 mmHg 86%
    03:00 +7°C° 0 mm 1 mps 768 mmHg 86%
    04:00 +8°C° 0 mm 1 mps 768 mmHg 85%
    05:00 +8°C° 0 mm 1 mps 768 mmHg 84%
    06:00 +8°C° 0 mm 1 mps 768 mmHg 84%
    07:00 +10°C° 0 mm 1 mps 768 mmHg 78%
    08:00 +13°C° 0 mm 1 mps 768 mmHg 72%
    09:00 +15°C° 0 mm 2 mps 768 mmHg 67%
    10:00 +17°C° 0 mm 2 mps 768 mmHg 63%
    11:00 +18°C° 0 mm 2 mps 768 mmHg 60%
    12:00 +20°C° 0 mm 2 mps 768 mmHg 57%
    13:00 +20°C° 0 mm 2 mps 767 mmHg 56%
    14:00 +21°C° 0 mm 2 mps 767 mmHg 55%
    15:00 +21°C° 0 mm 2 mps 767 mmHg 55%
    16:00 +20°C° 0 mm 2 mps 767 mmHg 61%
    17:00 +19°C° 0 mm 2 mps 766 mmHg 67%
    18:00 +18°C° 0 mm 2 mps 766 mmHg 74%
    19:00 +16°C° 0 mm 2 mps 766 mmHg 78%
    20:00 +14°C° 0 mm 2 mps 766 mmHg 83%
    21:00 +12°C° 0 mm 2 mps 766 mmHg 87%
    22:00 +12°C° 0 mm 2 mps 766 mmHg 87%
    23:00 +10°C° 0 mm 2 mps 766 mmHg 87%

    Tomorrow, 21 April, Sunday

    Time Temperature Precipitation Wind Pressure Humidity
    00:00 +10°C° 0 mm 1 mps 765 mmHg 87%
    01:00 +10°C° 0 mm 1 mps 765 mmHg 87%
    02:00 +10°C° 0 mm 1 mps 764 mmHg 86%
    03:00 +9°C° 0 mm 1 mps 764 mmHg 86%
    04:00 +9°C° 0 mm 1 mps 763 mmHg 84%
    05:00 +10°C° 0 mm 1 mps 763 mmHg 83%
    06:00 +10°C° 0 mm 1 mps 763 mmHg 81%
    07:00 +12°C° 0 mm 1 mps 762 mmHg 75%
    08:00 +14°C° 0 mm 1 mps 762 mmHg 69%
    09:00 +16°C° 0 mm 2 mps 762 mmHg 63%
    10:00 +17°C° 0 mm 2 mps 761 mmHg 60%
    11:00 +19°C° 0 mm 2 mps 761 mmHg 57%
    12:00 +20°C° 0 mm 2 mps 760 mmHg 54%
    13:00 +20°C° 0 mm 2 mps 759 mmHg 53%
    14:00 +20°C° 0 mm 3 mps 759 mmHg 53%
    15:00 +21°C° 0 mm 3 mps 758 mmHg 52%
    16:00 +20°C° 0 mm 3 mps 758 mmHg 57%
    17:00 +19°C° 0 mm 2 mps 757 mmHg 61%
    18:00 +18°C° 0 mm 2 mps 757 mmHg 66%
    19:00 +17°C° 0 mm 2 mps 757 mmHg 69%
    20:00 +15°C° 0 mm 2 mps 756 mmHg 72%
    21:00 +13°C° 0 mm 2 mps 756 mmHg 75%
    22:00 +12°C° 0 mm 2 mps 756 mmHg 76%
    23:00 +12°C° 0 mm 2 mps 755 mmHg 76%

    Day after tomorrow, 22 April, Monday

    Time Temperature Precipitation Wind Pressure Humidity
    00:00 +10°C° 0 mm 3 mps 755 mmHg 76%
    01:00 +9°C° 0 mm 2 mps 754 mmHg 76%
    02:00 +9°C° 0 mm 2 mps 754 mmHg 76%
    03:00 +8°C° 0 mm 2 mps 753 mmHg 77%
    04:00 +8°C° 0 mm 2 mps 753 mmHg 78%
    05:00 +8°C° 0 mm 2 mps 752 mmHg 80%
    06:00 +8°C° 0 mm 2 mps 752 mmHg 81%
    07:00 +10°C° 0 mm 2 mps 752 mmHg 77%
    08:00 +13°C° 0 mm 3 mps 751 mmHg 73%
    09:00 +16°C° 0 mm 3 mps 751 mmHg 69%
    10:00 +17°C° 0 mm 4 mps 751 mmHg 64%
    11:00 +19°C° 0 mm 4 mps 750 mmHg 60%
    12:00 +20°C° 0 mm 5 mps 750 mmHg 55%
    13:00 +20°C° 0 mm 5 mps 749 mmHg 55%
    14:00 +21°C° 0 mm 5 mps 748 mmHg 56%
    15:00 +21°C° 0 mm 5 mps 748 mmHg 56%
    16:00 +20°C° 0 mm 5 mps 747 mmHg 61%
    17:00 +19°C° 0 mm 4 mps 747 mmHg 65%
    18:00 +18°C° 0 mm 4 mps 747 mmHg 70%
    19:00 +15°C° 0 mm 4 mps 747 mmHg 74%
    20:00 +13°C° 0 mm 4 mps 747 mmHg 78%
    21:00 +11°C° 0 mm 3 mps 747 mmHg 81%
    22:00 +11°C° 0 mm 3 mps 746 mmHg 83%
    23:00 +10°C° 0 mm 3 mps 746 mmHg 84%

    23 April, Tuesday

    Time Temperature Precipitation Wind Pressure Humidity
    00:00 +9°C° 0 mm 3 mps 746 mmHg 85%
    01:00 +9°C° 0 mm 3 mps 746 mmHg 85%
    02:00 +9°C° 0 mm 3 mps 745 mmHg 85%
    03:00 +9°C° 0 mm 3 mps 745 mmHg 85%
    04:00 +9°C° 0 mm 3 mps 745 mmHg 86%
    05:00 +9°C° 0 mm 3 mps 745 mmHg 86%
    06:00 +10°C° 0 mm 3 mps 745 mmHg 86%
    07:00 +11°C° 0 mm 4 mps 745 mmHg 82%
    08:00 +13°C° 0 mm 4 mps 745 mmHg 77%
    09:00 +14°C° 0 mm 5 mps 746 mmHg 73%
    10:00 +15°C° 0 mm 5 mps 745 mmHg 69%
    11:00 +16°C° 0 mm 5 mps 745 mmHg 65%
    12:00 +19°C° 0 mm 6 mps 745 mmHg 60%
    13:00 +17°C° 0 mm 6 mps 745 mmHg 60%
    14:00 +17°C° 0 mm 6 mps 745 mmHg 59%
    15:00 +17°C° 0 mm 6 mps 745 mmHg 59%
    16:00 +16°C° 0 mm 5 mps 745 mmHg 64%
    17:00 +15°C° 0 mm 5 mps 744 mmHg 70%
    18:00 +13°C° 0 mm 5 mps 744 mmHg 75%
    19:00 +12°C° 0 mm 4 mps 745 mmHg 81%
    20:00 +10°C° 0 mm 4 mps 745 mmHg 86%
    21:00 +7°C° 0 mm 4 mps 745 mmHg 92%
    22:00 +8°C° 0 mm 3 mps 745 mmHg 93%
    23:00 +7°C° 0 mm 3 mps 745 mmHg 94%

    24 April, Wednesday

    Time Temperature Precipitation Wind Pressure Humidity
    00:00 +7°C° 0 mm 3 mps 744 mmHg 95%
    01:00 +7°C° 0 mm 3 mps 744 mmHg 95%
    02:00 +7°C° 0 mm 2 mps 744 mmHg 95%
    03:00 +7°C° 0 mm 2 mps 743 mmHg 95%
    04:00 +7°C° 0 mm 3 mps 743 mmHg 95%
    05:00 +8°C° 0 mm 3 mps 743 mmHg 94%
    06:00 +8°C° 0 mm 3 mps 743 mmHg 94%
    07:00 +10°C° 0 mm 4 mps 743 mmHg 88%
    08:00 +12°C° 0 mm 5 mps 743 mmHg 83%
    09:00 +15°C° 0 mm 6 mps 743 mmHg 77%
    10:00 +14°C° 0.1 mm 5 mps 743 mmHg 80%
    11:00 +14°C° 0.1 mm 5 mps 743 mmHg 83%
    12:00 +14°C° 0.1 mm 5 mps 744 mmHg 86%
    13:00 +15°C° 0.1 mm 6 mps 744 mmHg 81%
    14:00 +15°C° 0.1 mm 6 mps 744 mmHg 75%
    15:00 +16°C° 0.1 mm 7 mps 744 mmHg 70%
    16:00 +15°C° 0.1 mm 6 mps 744 mmHg 72%
    17:00 +14°C° 0.1 mm 6 mps 744 mmHg 74%
    18:00 +13°C° 0.1 mm 5 mps 744 mmHg 75%
    19:00 +12°C° 0 mm 5 mps 745 mmHg 75%
    20:00 +10°C° 0 mm 5 mps 745 mmHg 74%
    21:00 +10°C° 0 mm 4 mps 746 mmHg 73%
    22:00 +8°C° 0 mm 4 mps 746 mmHg 76%
    23:00 +8°C° 0 mm 4 mps 746 mmHg 79%

    25 April, Thursday

    Time Temperature Precipitation Wind Pressure Humidity
    00:00 +8°C° 0 mm 4 mps 745 mmHg 82%
    01:00 +7°C° 0 mm 5 mps 745 mmHg 83%
    02:00 +7°C° 0 mm 5 mps 745 mmHg 84%
    03:00 +7°C° 0 mm 5 mps 745 mmHg 85%
    04:00 +7°C° 0 mm 5 mps 745 mmHg 85%
    05:00 +7°C° 0 mm 5 mps 745 mmHg 85%
    06:00 +7°C° 0 mm 5 mps 744 mmHg 85%
    07:00 +9°C° 0.1 mm 6 mps 744 mmHg 79%
    08:00 +10°C° 0.1 mm 7 mps 745 mmHg 74%
    09:00 +12°C° 0.1 mm 8 mps 745 mmHg 69%
    10:00 +12°C° 0.3 mm 8 mps 745 mmHg 70%
    11:00 +12°C° 0.3 mm 9 mps 745 mmHg 71%
    12:00 +12°C° 0.3 mm 9 mps 745 mmHg 72%
    13:00 +12°C° 0.2 mm 8 mps 745 mmHg 68%
    14:00 +13°C° 0.2 mm 6 mps 746 mmHg 65%
    15:00 +13°C° 0.2 mm 5 mps 746 mmHg 61%
    16:00 +12°C° 0 mm 5 mps 747 mmHg 65%
    17:00 +12°C° 0 mm 4 mps 748 mmHg 68%
    18:00 +11°C° 0 mm 4 mps 749 mmHg 72%
    19:00 +10°C° 0 mm 4 mps 749 mmHg 74%
    20:00 +8°C° 0 mm 4 mps 750 mmHg 76%
    21:00 +6°C° 0 mm 4 mps 751 mmHg 78%
    22:00 +6°C° 0 mm 4 mps 751 mmHg 79%
    23:00 +5°C° 0 mm 4 mps 752 mmHg 81%
    Show more